Weather in Dzhugurty

Russia / Chechen Republic     43°09′53″N   46°10′34″E
temp.,
°C
wind,
m/s
gust,
m/s
humid.,
%
clouds,
%
prec.,
mm/h
press.,
hPa
HPBL,
m
22 april, thu
thu2200:00+10sw1187100 0.0 102111
03:00+10ssw1189100 0.0 102111
06:00+11sw118490 0.0 102264
09:00+13nw227091 0.0 1022517
12:00+17n435435 0.0 10211202
15:00+17ne3352100 0.0 10211620
18:00+14e3668100 0.0 1021272
21:00+13ese246794 0.0 1021143
23 april, fri
fri2300:00+12ene2268100 0.0 102054
03:00+11nw127199 0.0 102048
06:00+11nw3584100 0.1 1022526
09:00+10w3590100 1.5 1024410
12:00+12w5108181 0.4 1023963
15:00+16w575553 0.4 10221447
18:00+15wnw22615 0.0 102223
21:00+11s22740 0.0 102213
24 april, sat
sat2400:00+10sse227527 0.0 102018
03:00+10sse1173100 0.0 101911
06:00+10wsw1174100 0.0 102018
09:00+15nne236298 0.0 1019602
12:00+20e3450100 0.0 10171184
15:00+20ene654697 0.0 10171167
18:00+15ene356513 0.0 1018198
21:00+10s118036 0.0 101911
25 april, sun
sun2500:00+10w118389 0.0 101911
03:00+10sw228499 0.0 101812
06:00+11wsw22825 0.0 102053
09:00+16wnw455784 0.0 1019884
12:00+19n3250100 0.0 10171302
15:00+20ene325289 0.0 10151530
18:00+16e4763100 0.0 1015291
21:00+11e237275 0.0 101640
26 april, mon
mon2600:00+10nw1178100 0.0 101510
03:00+9w118736 0.0 101310
06:00+10wsw248496 0.0 1015188
09:00+13wnw456996 0.0 1016811
12:00+12nw5575100 0.1 1018908
15:00+11wnw3684100 0.2 1019702
18:00+9nnw2497100 4.8 1021323
21:00+9nw2496100 7.3 1021275